Wind_Speed
7 11 15 15 13 13 16 16 22 27 32 33 33 31 28 30 25 21 18 15 13 12 10 9 8 9 11 12 13 12 14 14 22 12 22 10 5 9 6 25 15 18 18
5 5 12 15 15 16 17 18 21 27 31 34 32 34 33 27 25 22 20 17 15 12 10 9 10 10 10 10 13 15 14 11 18 10 4 4 8 4 14 19 18 14 28
11 8 9 16 16 17 18 21 25 28 29 32 34 35 30 30 27 22 22 17 13 11 9 9 9 9 10 11 12 14 15 11 12 10 8 4 3 8 5 12 10 24 16
9 8 8 11 20 19 19 23 26 29 31 35 39 38 30 24 20 24 21 17 12 11 9 8 8 9 9 10 11 12 13 12 10 8 8 5 10 3 5 4 25 12 28
13 12 13 17 22 23 25 27 28 30 33 36 36 33 31 32 29 24 21 16 12 9 8 7 8 8 9 10 10 11 12 12 10 10 9 9 13 9 4 10 11 27 27
11 10 12 20 21 24 28 30 32 31 31 30 29 32 36 34 29 22 18 14 11 8 7 7 7 8 8 9 10 11 11 11 11 10 11 9 4 7 7 7 14 15 23
15 14 15 13 20 26 30 31 32 28 27 28 29 32 33 30 25 20 15 13 10 7 7 6 7 8 8 9 11 12 12 12 12 11 13 8 12 16 18 17 16 8 25
16 19 18 16 20 25 29 30 32 31 30 31 30 29 27 25 20 16 14 12 9 7 6 6 6 7 9 11 12 13 13 13 13 14 9 14 17 17 19 16 17 13 8
17 20 16 19 21 25 28 33 33 33 32 32 30 27 25 22 20 16 12 11 8 6 5 5 7 9 10 12 13 14 15 16 15 14 16 18 17 19 21 21 20 13 11
16 15 15 19 21 27 30 32 34 34 33 31 29 27 24 20 17 14 12 9 7 5 5 6 8 10 11 14 15 16 17 16 16 19 20 19 20 22 21 23 22 20 19
17 16 14 19 23 28 30 32 34 34 32 30 28 25 22 18 15 12 10 7 6 5 6 8 10 12 14 15 17 17 16 17 21 21 21 21 22 23 24 26 24 22 21
16 15 14 19 23 24 27 30 33 33 30 29 27 23 20 16 13 11 9 6 5 5 7 9 11 13 14 16 17 16 18 20 22 22 22 23 25 25 28 26 24 25 27
16 14 13 13 18 21 26 30 32 31 29 27 25 21 17 14 12 9 7 5 5 6 8 10 12 14 15 17 16 17 19 20 21 23 24 25 26 27 26 28 27 25 24
17 15 13 12 18 20 24 29 30 30 28 25 22 19 15 12 10 8 6 5 6 8 9 10 12 14 15 16 17 19 20 22 23 21 21 24 25 26 27 26 26 26 31
15 15 14 12 16 20 24 28 30 29 27 24 20 17 14 11 9 6 5 5 7 8 8 11 13 15 16 18 18 20 22 22 20 25 27 25 23 25 26 30 32 31 29
15 15 14 14 16 22 23 28 30 28 25 22 19 16 13 10 7 5 5 5 7 8 10 12 14 16 18 19 19 19 22 20 25 27 28 28 24 24 29 31 31 32 33
16 16 16 15 21 24 29 29 31 28 24 21 18 15 12 9 6 4 4 5 8 10 11 14 15 17 19 17 18 20 21 23 26 27 29 29 25 29 32 32 35 33 26
15 14 13 18 22 26 28 32 31 27 24 21 17 14 11 8 5 3 5 7 9 11 13 15 17 18 19 18 19 21 23 26 27 27 27 28 30 29 34 35 26 32 28
13 15 23 26 28 30 34 34 30 26 23 19 16 13 9 7 3 4 6 7 10 12 15 16 18 18 18 18 20 22 25 25 26 24 23 24 27 32 35 34 31 30 29
19 22 26 28 29 30 35 33 28 26 22 18 15 11 8 5 3 4 6 9 11 13 15 17 17 16 18 20 20 22 24 24 25 22 23 23 31 34 34 35 30 25 32
23 26 26 25 27 33 34 27 27 23 19 17 14 10 6 3 3 5 8 10 12 15 16 17 17 17 20 21 20 21 24 26 26 26 25 28 31 35 36 33 27 29 34
20 23 25 23 27 32 33 28 24 21 19 16 12 8 5 3 4 7 8 10 14 16 17 19 20 21 21 21 20 21 23 27 28 25 28 30 34 34 31 29 28 31 31
19 22 26 26 28 30 30 28 23 21 18 15 11 7 4 3 6 8 11 14 14 15 18 17 17 21 20 21 21 22 24 26 27 26 31 32 32 29 26 27 28 28 25
18 25 27 23 23 24 26 26 23 19 16 13 9 6 3 3 5 7 10 12 14 16 18 16 17 21 20 21 24 23 26 22 24 27 25 27 26 24 25 25 25 25 25
19 23 23 22 24 24 24 22 20 17 15 11 8 4 2 5 7 8 10 12 12 13 17 18 19 20 19 20 26 27 27 28 29 31 24 23 23 24 25 26 26 26 26
21 22 24 28 25 25 22 18 15 13 12 9 5 2 4 6 8 11 14 12 10 13 14 15 18 20 20 24 26 27 27 30 27 23 20 21 22 22 24 25 27 28 27
Wind_Direction
271 249 212 195 193 189 183 172 171 170 171 161 152 146 134 139 138 135 131 127 125 118 112 95 74 49 35 30 23 23 17 14 5 357 341 338 326 287 284 339 333 333 336
236 194 190 185 186 177 177 172 168 167 168 167 157 147 141 139 134 129 124 122 119 109 98 79 64 51 42 35 31 30 26 20 17 2 332 348 329 336 307 311 330 318 330
208 198 188 193 182 177 177 174 173 170 168 163 153 142 136 129 127 127 120 113 110 100 84 70 57 49 42 42 38 32 30 20 15 26 41 348 307 327 306 289 295 318 319
201 186 173 178 181 177 172 172 172 170 165 160 152 149 144 137 141 132 121 114 103 91 80 65 55 53 51 48 40 28 25 17 15 15 356 327 297 309 317 295 309 311 315
185 179 177 174 176 168 163 163 165 163 160 160 159 154 142 138 136 129 122 114 103 89 77 66 58 56 50 42 30 22 16 13 8 0 340 324 307 280 272 301 309 312 313
177 156 136 147 154 161 158 159 160 158 160 160 159 156 147 143 137 131 124 116 107 92 75 63 57 49 40 29 21 12 4 2 353 343 342 332 321 314 303 297 305 298 309
154 149 148 147 150 153 156 157 157 152 157 157 156 153 148 145 139 138 133 128 116 94 74 61 51 42 31 18 8 0 357 353 347 339 334 336 330 326 316 304 303 303 307
164 161 158 153 150 146 148 152 153 149 151 149 148 146 143 139 136 138 133 122 109 91 79 60 44 28 14 5 359 354 353 345 338 333 331 328 328 331 325 304 306 309 300
166 157 147 145 143 143 148 151 149 147 148 146 143 140 140 139 136 132 125 116 107 96 78 52 30 17 7 360 354 349 345 337 333 329 327 321 325 329 329 322 303 290 308
154 147 142 139 137 141 149 152 151 149 147 145 142 139 136 134 131 127 119 113 106 94 64 36 18 7 0 355 349 342 338 333 330 327 321 317 320 321 323 323 308 288 280
150 140 133 132 130 137 144 147 150 148 146 144 140 137 133 131 128 119 112 107 97 69 40 20 7 359 354 350 345 338 337 332 327 325 320 310 314 312 314 319 307 288 281
140 133 131 131 133 133 140 144 148 149 147 143 139 135 133 130 123 114 109 101 78 48 25 8 360 354 348 345 342 336 333 330 326 322 317 312 313 309 316 311 298 290 288
130 129 131 137 136 136 140 145 152 147 145 144 139 135 131 128 119 114 106 90 62 34 13 0 356 348 344 340 338 335 331 326 324 326 321 319 319 316 312 310 299 293 298
140 138 139 139 139 139 141 146 151 150 147 144 140 135 132 128 124 116 103 69 36 16 4 359 352 347 340 338 339 335 330 327 327 331 330 327 323 318 314 309 308 308 304
144 150 148 144 138 136 142 149 153 151 150 145 140 135 134 131 125 115 86 50 22 10 2 352 348 345 344 344 336 332 329 331 332 332 330 328 321 315 315 314 315 308 302
155 155 150 143 146 146 146 150 154 154 154 146 141 140 138 135 126 106 64 27 13 6 359 354 347 344 343 340 333 329 329 330 332 332 330 326 317 314 314 313 311 305 303
160 159 158 154 152 151 152 153 158 155 153 148 145 144 142 137 123 81 38 15 6 358 353 349 345 340 340 335 328 327 326 329 330 328 323 318 312 313 313 307 305 303 313
157 154 149 144 145 147 151 158 158 157 154 149 147 145 144 132 108 66 24 7 356 350 347 344 342 336 335 330 326 327 327 327 326 321 318 314 313 316 316 313 321 320 314
150 148 148 144 144 150 156 157 158 156 153 150 148 147 141 132 105 43 13 357 347 346 342 340 338 335 334 335 330 330 328 321 318 317 315 318 317 317 319 323 321 317 313
138 135 136 138 142 150 158 153 154 156 154 154 148 145 140 115 69 24 1 352 345 340 338 334 338 337 338 343 334 332 327 320 317 318 322 321 323 320 323 325 323 320 310
130 132 137 140 143 151 153 143 153 155 154 150 146 139 125 102 46 10 354 347 341 337 338 336 338 342 347 343 334 332 328 322 324 327 325 323 323 325 325 322 324 310 319
124 127 123 125 139 151 154 147 150 151 151 147 141 134 124 86 21 357 351 348 343 340 338 337 338 341 343 342 332 329 327 327 328 323 322 318 323 324 323 323 320 322 324
118 122 124 123 140 154 156 147 149 152 148 144 138 130 106 52 5 354 351 347 345 340 337 334 326 328 331 335 329 325 327 327 324 322 318 322 323 323 323 322 323 323 320
119 127 125 124 131 150 153 149 149 151 149 141 133 120 90 15 359 358 350 343 340 337 337 330 324 326 326 328 328 329 327 326 326 323 326 325 323 323 321 321 321 320 319
118 124 124 126 134 142 142 146 149 151 142 137 130 112 39 0 353 346 343 340 334 330 328 327 327 325 324 325 329 330 329 331 330 328 327 326 325 323 323 322 321 321 320
117 113 122 130 138 140 139 142 145 149 144 132 123 74 7 352 341 334 330 339 333 329 327 327 327 325 321 326 330 329 331 329 330 329 324 322 321 319 320 318 317 318 319
Height
720 721 722 725 729 731 733 734 734 736 739 745 751 758 763 768 774 776 777 779 782 784 785 786 786 785 785 785 785 784 783 781 778 774 770 767 766 765 765 764 764 761 760
720 720 721 723 726 728 731 732 734 736 739 742 748 754 760 768 771 775 778 780 783 785 786 787 786 786 786 786 785 784 783 783 782 780 777 775 768 764 763 762 761 760 759
715 718 719 721 724 726 729 731 734 736 739 742 748 755 762 768 772 777 777 781 783 786 787 788 787 786 787 787 786 785 784 785 784 784 784 783 782 773 762 762 760 759 757
706 710 715 719 721 724 727 730 734 737 740 743 747 751 756 763 772 775 778 781 785 786 788 789 789 788 788 787 786 785 786 785 785 784 786 787 785 781 769 760 757 756 753
699 706 709 714 718 723 726 731 736 739 742 744 748 751 758 764 771 775 778 782 784 788 790 790 789 789 788 787 787 787 787 786 786 785 784 783 781 779 778 762 754 751 749
694 700 707 713 719 723 727 731 736 741 743 747 750 753 757 765 770 775 779 783 786 789 790 790 790 789 788 788 787 787 787 786 785 785 784 783 782 779 777 768 758 750 743
690 699 705 712 719 722 727 732 736 741 745 748 752 756 760 765 770 776 780 783 786 789 790 790 790 789 788 787 787 787 786 785 784 783 781 780 779 777 774 768 757 748 741
684 691 700 708 715 721 726 731 737 742 746 750 756 761 764 768 773 778 781 783 786 788 790 790 789 789 788 787 786 785 785 783 782 780 779 777 776 773 771 767 761 745 738
683 687 698 706 713 719 726 732 737 743 748 754 758 763 767 771 776 780 782 784 787 789 789 789 789 788 787 786 785 784 782 780 778 776 775 773 771 768 766 763 759 755 738
685 691 697 705 714 721 728 734 739 744 751 756 760 765 769 774 778 781 783 786 788 789 789 789 788 787 786 784 783 781 780 777 775 773 770 768 766 763 760 756 753 751 746
685 691 700 709 714 722 730 736 741 747 754 758 762 766 771 776 779 782 784 786 788 788 788 787 786 785 783 782 780 779 776 775 772 770 766 763 761 757 754 750 747 743 739
685 692 702 710 717 725 732 738 745 750 756 760 764 769 773 777 780 782 785 787 787 788 787 786 785 783 782 780 778 776 774 771 768 765 762 759 756 752 748 744 740 735 730
689 697 706 713 720 727 734 741 747 752 757 762 766 771 775 778 781 784 786 788 787 787 785 784 783 782 780 778 776 773 771 768 765 762 758 754 750 746 743 739 733 728 722
689 698 709 716 723 730 736 743 749 754 759 763 768 772 776 780 783 785 787 787 786 786 785 784 783 781 779 776 773 770 768 765 762 758 754 750 746 742 738 733 727 722 715
693 701 709 718 725 732 739 745 751 755 760 765 769 774 778 781 784 785 786 786 785 785 784 783 781 779 776 773 770 767 764 760 757 753 749 745 742 739 734 728 721 716 709
693 702 710 718 725 732 739 745 751 756 761 766 771 775 778 782 784 785 785 785 785 784 782 781 779 776 773 770 767 764 760 757 753 748 744 740 737 732 728 723 717 711 702
692 701 709 716 724 731 738 745 751 757 763 767 772 776 779 782 783 784 785 785 784 782 781 779 777 774 770 768 765 762 757 753 749 744 740 735 732 727 721 714 708 701 698
693 702 710 718 726 733 740 746 753 758 763 768 772 776 779 781 782 784 783 783 782 781 779 777 775 771 768 765 762 757 752 748 744 740 736 732 726 721 715 707 699 694 690
692 700 708 716 725 732 740 746 754 760 765 769 773 776 779 781 782 782 782 782 780 779 777 775 772 769 766 762 758 753 748 743 739 735 731 727 722 716 709 702 695 688 683
693 700 709 718 725 734 740 747 755 760 765 770 773 776 779 780 781 782 781 780 779 777 776 773 770 767 763 759 755 750 744 739 734 730 726 722 717 709 703 697 691 684 676
695 703 711 718 726 734 742 750 756 762 766 770 774 776 778 780 781 780 780 779 778 776 773 771 768 764 760 756 752 748 743 737 730 725 720 717 711 704 698 694 688 682 672
701 707 713 723 731 737 743 751 758 763 767 771 774 777 779 779 779 779 779 778 776 773 770 767 763 761 758 754 750 746 741 735 729 723 717 712 706 700 695 689 684 677 670
705 712 717 726 735 741 745 752 759 763 767 771 775 777 778 778 779 779 778 776 774 772 769 765 761 758 754 751 747 743 737 732 727 722 715 709 704 697 691 686 681 675 668
711 716 722 730 738 744 749 753 760 765 769 772 774 776 777 778 778 778 777 775 773 770 767 763 760 755 751 747 743 738 733 728 723 717 711 706 701 695 689 683 677 672 666
717 721 726 734 741 747 753 758 763 766 769 772 775 776 777 777 777 776 775 774 772 769 766 762 758 753 748 745 741 735 729 724 719 713 707 702 697 691 685 679 674 668 662
721 727 733 739 746 752 757 762 766 769 772 774 775 776 776 776 776 774 773 772 770 767 764 761 756 751 747 742 737 731 726 722 717 711 707 701 696 691 684 678 670 664 658